When you browse on this site, cookies collect data to enhance your experience and personalize the content and advertising you see.
Visit our Privacy Policy to learn more. By continuing to use the site, you agree to this use of cookies and data.
  • en Belgique
  • Liste des pays
  • À 7 jours
  • Température de l'eau
  • Carte satellitaire
  • Carte météo
  • Widgets météo
  • user-avatar
    Se connecter

    Météo par heure à Ile de Korfu

    Ce jour, 21 Janvier, Lundi

    Heure Température Précipitation Vent Pression Humidité
    00:00 +10°C° 0 mm 3 m/s 757 mmHg 77%
    01:00 +10°C° 0 mm 3 m/s 757 mmHg 75%
    02:00 +10°C° 0 mm 3 m/s 757 mmHg 74%
    03:00 +10°C° 0 mm 3 m/s 757 mmHg 73%
    04:00 +9°C° 0 mm 3 m/s 757 mmHg 73%
    05:00 +9°C° 0 mm 3 m/s 757 mmHg 72%
    06:00 +8°C° 0 mm 4 m/s 757 mmHg 72%
    07:00 +8°C° 0 mm 4 m/s 757 mmHg 72%
    08:00 +10°C° 0 mm 4 m/s 757 mmHg 71%
    09:00 +11°C° 0 mm 4 m/s 757 mmHg 70%
    10:00 +12°C° 0 mm 5 m/s 757 mmHg 69%
    11:00 +12°C° 0 mm 5 m/s 757 mmHg 70%
    12:00 +13°C° 0 mm 5 m/s 757 mmHg 71%
    13:00 +13°C° 0 mm 6 m/s 757 mmHg 73%
    14:00 +13°C° 0.3 mm 6 m/s 757 mmHg 75%
    15:00 +11°C° 0.3 mm 6 m/s 757 mmHg 78%
    16:00 +11°C° 0.3 mm 6 m/s 757 mmHg 80%
    17:00 +11°C° 0.4 mm 6 m/s 757 mmHg 80%
    18:00 +11°C° 0.4 mm 6 m/s 757 mmHg 81%
    19:00 +11°C° 0.4 mm 6 m/s 757 mmHg 81%
    20:00 +11°C° 0.4 mm 6 m/s 757 mmHg 81%
    21:00 +11°C° 0.4 mm 6 m/s 757 mmHg 81%
    22:00 +10°C° 0.4 mm 7 m/s 757 mmHg 80%
    23:00 +10°C° 0.5 mm 7 m/s 757 mmHg 80%

    Demain, 22 Janvier, Mardi

    Heure Température Précipitation Vent Pression Humidité
    00:00 +10°C° 0.5 mm 7 m/s 757 mmHg 81%
    01:00 +10°C° 0.5 mm 8 m/s 756 mmHg 81%
    02:00 +10°C° 1.4 mm 8 m/s 756 mmHg 82%
    03:00 +10°C° 1.4 mm 8 m/s 756 mmHg 84%
    04:00 +10°C° 1.4 mm 9 m/s 755 mmHg 85%
    05:00 +10°C° 0.8 mm 9 m/s 755 mmHg 85%
    06:00 +10°C° 0.8 mm 9 m/s 755 mmHg 84%
    07:00 +10°C° 0.8 mm 9 m/s 754 mmHg 84%
    08:00 +9°C° 0.6 mm 10 m/s 754 mmHg 84%
    09:00 +9°C° 0.6 mm 10 m/s 754 mmHg 85%
    10:00 +9°C° 0.6 mm 10 m/s 754 mmHg 85%
    11:00 +9°C° 0.6 mm 10 m/s 753 mmHg 85%
    12:00 +9°C° 0.6 mm 10 m/s 753 mmHg 85%
    13:00 +11°C° 0.6 mm 10 m/s 752 mmHg 85%
    14:00 +11°C° 1.4 mm 9 m/s 752 mmHg 84%
    15:00 +11°C° 1.4 mm 9 m/s 751 mmHg 84%
    16:00 +11°C° 1.4 mm 8 m/s 751 mmHg 83%
    17:00 +11°C° 2.4 mm 7 m/s 751 mmHg 82%
    18:00 +11°C° 2.4 mm 6 m/s 751 mmHg 82%
    19:00 +11°C° 2.4 mm 6 m/s 751 mmHg 81%
    20:00 +11°C° 1.3 mm 4 m/s 751 mmHg 80%
    21:00 +11°C° 1.3 mm 3 m/s 751 mmHg 80%
    22:00 +10°C° 1.3 mm 2 m/s 752 mmHg 80%
    23:00 +10°C° 0.4 mm 3 m/s 752 mmHg 79%

    Après-demain, 23 Janvier, Mercredi

    Heure Température Précipitation Vent Pression Humidité
    00:00 +10°C° 0.4 mm 3 m/s 752 mmHg 79%
    01:00 +10°C° 0.4 mm 4 m/s 751 mmHg 79%
    02:00 +10°C° 0.7 mm 4 m/s 751 mmHg 78%
    03:00 +10°C° 0.7 mm 4 m/s 751 mmHg 77%
    04:00 +10°C° 0.7 mm 4 m/s 750 mmHg 75%
    05:00 +10°C° 0.9 mm 4 m/s 750 mmHg 77%
    06:00 +10°C° 0.9 mm 3 m/s 750 mmHg 78%
    07:00 +10°C° 0.9 mm 3 m/s 750 mmHg 79%
    08:00 +10°C° 0.7 mm 3 m/s 750 mmHg 80%
    09:00 +10°C° 0.7 mm 3 m/s 750 mmHg 80%
    10:00 +11°C° 0.7 mm 3 m/s 750 mmHg 80%
    11:00 +11°C° 0.4 mm 4 m/s 749 mmHg 80%
    12:00 +11°C° 0.4 mm 4 m/s 748 mmHg 79%
    13:00 +10°C° 0.4 mm 5 m/s 747 mmHg 79%
    14:00 +11°C° 0.1 mm 4 m/s 747 mmHg 81%
    15:00 +10°C° 0.1 mm 4 m/s 747 mmHg 82%
    16:00 +10°C° 0.1 mm 4 m/s 746 mmHg 84%
    17:00 +10°C° 0.1 mm 3 m/s 746 mmHg 84%
    18:00 +9°C° 0.1 mm 3 m/s 746 mmHg 84%
    19:00 +9°C° 0.1 mm 2 m/s 746 mmHg 84%
    20:00 +9°C° 0.2 mm 2 m/s 745 mmHg 85%
    21:00 +10°C° 0.2 mm 1 m/s 745 mmHg 86%
    22:00 +10°C° 0.2 mm 1 m/s 745 mmHg 87%
    23:00 +10°C° 0.6 mm 1 m/s 744 mmHg 88%

    24 Janvier, Jeudi

    Heure Température Précipitation Vent Pression Humidité
    00:00 +9°C° 0.6 mm 2 m/s 744 mmHg 89%
    01:00 +9°C° 0.6 mm 2 m/s 743 mmHg 90%
    02:00 +8°C° 0.2 mm 2 m/s 743 mmHg 88%
    03:00 +8°C° 0.2 mm 2 m/s 742 mmHg 87%
    04:00 +8°C° 0.2 mm 2 m/s 742 mmHg 85%
    05:00 +8°C° 0.5 mm 2 m/s 742 mmHg 85%
    06:00 +9°C° 0.5 mm 1 m/s 742 mmHg 86%
    07:00 +9°C° 0.5 mm 1 m/s 742 mmHg 86%
    08:00 +9°C° 1.4 mm 1 m/s 742 mmHg 87%
    09:00 +9°C° 1.4 mm 1 m/s 742 mmHg 89%
    10:00 +9°C° 1.4 mm 1 m/s 742 mmHg 91%
    11:00 +8°C° 0.3 mm 2 m/s 742 mmHg 90%
    12:00 +9°C° 0.3 mm 2 m/s 742 mmHg 90%
    13:00 +9°C° 0.3 mm 3 m/s 742 mmHg 89%
    14:00 +9°C° 0 mm 3 m/s 743 mmHg 88%
    15:00 +8°C° 0 mm 4 m/s 743 mmHg 86%
    16:00 +10°C° 0 mm 4 m/s 743 mmHg 85%
    17:00 +9°C° 0 mm 5 m/s 743 mmHg 84%
    18:00 +9°C° 0 mm 5 m/s 743 mmHg 83%
    19:00 +9°C° 0 mm 6 m/s 743 mmHg 83%
    20:00 +9°C° 0 mm 6 m/s 743 mmHg 81%
    21:00 +9°C° 0 mm 7 m/s 743 mmHg 78%
    22:00 +9°C° 0 mm 7 m/s 743 mmHg 76%
    23:00 +8°C° 2.8 mm 7 m/s 743 mmHg 80%

    25 Janvier, Vendredi

    Heure Température Précipitation Vent Pression Humidité
    00:00 +8°C° 2.8 mm 7 m/s 743 mmHg 84%
    01:00 +6°C° 2.8 mm 7 m/s 743 mmHg 87%
    02:00 +7°C° 1.8 mm 6 m/s 743 mmHg 88%
    03:00 +7°C° 1.8 mm 5 m/s 743 mmHg 89%
    04:00 +7°C° 1.8 mm 5 m/s 743 mmHg 90%
    05:00 +7°C° 0.5 mm 5 m/s 743 mmHg 90%
    06:00 +8°C° 0.5 mm 5 m/s 743 mmHg 89%
    07:00 +8°C° 0.5 mm 5 m/s 744 mmHg 88%
    08:00 +8°C° 0.7 mm 5 m/s 744 mmHg 89%
    09:00 +7°C° 0.7 mm 5 m/s 744 mmHg 90%
    10:00 +7°C° 0.7 mm 5 m/s 744 mmHg 90%
    11:00 +8°C° 0.1 mm 5 m/s 744 mmHg 86%
    12:00 +10°C° 0.1 mm 4 m/s 744 mmHg 81%
    13:00 +10°C° 0.1 mm 3 m/s 744 mmHg 77%
    14:00 +10°C° 0 mm 3 m/s 744 mmHg 76%
    15:00 +10°C° 0 mm 4 m/s 744 mmHg 75%
    16:00 +10°C° 0 mm 4 m/s 744 mmHg 74%
    17:00 +10°C° 0 mm 4 m/s 744 mmHg 75%
    18:00 +8°C° 0 mm 5 m/s 744 mmHg 76%
    19:00 +8°C° 0 mm 5 m/s 744 mmHg 77%
    20:00 +8°C° 0 mm 5 m/s 744 mmHg 77%
    21:00 +8°C° 0 mm 5 m/s 745 mmHg 78%
    22:00 +7°C° 0 mm 5 m/s 745 mmHg 78%
    23:00 +7°C° 0 mm 4 m/s 745 mmHg 77%

    26 Janvier, Samedi

    Heure Température Précipitation Vent Pression Humidité
    00:00 +7°C° 0 mm 4 m/s 745 mmHg 76%
    01:00 +7°C° 0 mm 4 m/s 745 mmHg 76%
    02:00 +7°C° 0 mm 4 m/s 745 mmHg 75%
    03:00 +7°C° 0 mm 4 m/s 746 mmHg 74%
    04:00 +6°C° 0 mm 4 m/s 746 mmHg 74%
    05:00 +6°C° 0 mm 4 m/s 746 mmHg 73%
    06:00 +6°C° 0 mm 4 m/s 747 mmHg 73%
    07:00 +6°C° 0 mm 4 m/s 747 mmHg 72%
    08:00 +7°C° 0 mm 4 m/s 748 mmHg 69%
    09:00 +9°C° 0 mm 3 m/s 748 mmHg 66%
    10:00 +10°C° 0 mm 3 m/s 749 mmHg 62%
    11:00 +10°C° 0 mm 4 m/s 749 mmHg 60%
    12:00 +11°C° 0 mm 4 m/s 749 mmHg 58%
    13:00 +11°C° 0 mm 4 m/s 749 mmHg 56%
    14:00 +10°C° 0 mm 5 m/s 749 mmHg 59%
    15:00 +10°C° 0 mm 6 m/s 749 mmHg 61%
    16:00 +9°C° 0 mm 6 m/s 750 mmHg 64%
    17:00 +9°C° 0 mm 6 m/s 750 mmHg 65%
    18:00 +9°C° 0 mm 6 m/s 751 mmHg 67%
    19:00 +8°C° 0 mm 6 m/s 751 mmHg 68%
    20:00 +8°C° 0 mm 5 m/s 751 mmHg 69%
    21:00 +8°C° 0 mm 5 m/s 752 mmHg 69%
    22:00 +7°C° 0 mm 5 m/s 752 mmHg 69%
    23:00 +7°C° 0 mm 4 m/s 752 mmHg 69%
    Voir plus